SCP
0 0 0 0 0 0 0 0 0 0 0 0 0 0 0 0 0 0 0 0 0 0 0 0 0 0 0 0 0 0 0 0 0 0 0 0 0 0
0 0 0 0 0 0 0 0 0 -0 0 0 0 0 0 0 0 0 0 0 0 0 0 0 0 0 0 0 0 0 0 0 0 0 0 0 0 0
0 0 0 0 0 0 0 0 0 0 0 0 0 0 0 0 0 0 0 0 0 0 0 0 0 0 0 0 0 0 0 0 0 0 0 0 0 0
0 0 0 0 0 0 0 0 0 0 0 0 0 0 0 0 0 0 0 0 0 0 0 0 0 0 0 0 0 0 0 0 0 0 0 0 0 0
0 0 0 0 0 0 0 0 0 0 0 0 0 0 0 0 0 0 0 0 0 0 0 0 0 0 0 0 0 0 0 0 0 0 0 0 0 0
0 0 0 0 0 0 0 0 0 0 0 0 0 0 0 0 0 0 0 0 0 0 0 0 0 0 0 0 0 0 0 0 0 0 0 0 0 0
0 0 0 0 0 0 0 0 0 0 0 0 0 0 0 0 0 0 0 0 0 0 0 0 0 0 0 0 0 0 0 0 0 0 0 0 0 0
0 0 0 0 0 0 0 0 0 0 0 0 0 0 0 0 0 0 0 0 0 0 0 0 0 0 0 0 0 0 0 0 0 0 0 0 0 0
0 0 0 0 0 0 0 0 0 0 0 0 0 0 0 0 0 0 0 0 0 0 0 0 0 0 0 0 0 0 0 0 0 0 0 0 0 0
0 0 0 0 0 0 0 0 0 0 0 0 0 0 0 0 0 0 0 0 0 0 0 0 0 0 0 0 0 0 0 0 -0 0 0 0 0 0
0 0 0 0 0 0 0 0 0 0 0 0 0 0 0 0 0 0 0 0 0 0 0 0 0 0 0 0 0 0 0 0 0 -0 0 0 0 0
0 0 0 0 0 0 0 0 0 0 0 0 0 0 0 0 0 0 0 0 0 0 0 0 0 0 0 0 0 0 0 0 0 0 0 0 0 0
0 0 0 0 0 0 0 0 0 0 0 0 0 0 0 0 0 0 0 0 0 0 0 0 0 0 0 0 0 0 0 0 0 0 0 -0 0 0
0 0 0 0 0 0 0 0 0 0 0 0 0 0 0 0 0 0 0 0 0 0 0 0 0 0 0 0 0 0 0 0 0 0 0 0 0 0
0 0 0 0 0 0 0 0 0 0 0 0 0 0 0 0 0 0 0 0 0 0 0 0 0 0 0 0 0 0 0 0 0 0 0 0 0 0
0 0 0 0 0 0 0 0 0 0 0 0 0 0 0 0 0 0 0 0 0 0 0 0 0 0 0 0 0 0 0 0 0 0 0 0 0 0
0 0 0 0 0 0 0 0 0 0 0 0 0 0 0 0 0 0 0 0 0 0 0 0 0 0 0 0 0 0 0 0 0 0 0 0 0 0
0 0 0 0 0 0 0 0 0 0 0 0 0 0 0 0 0 0 0 0 0 0 0 0 0 0 0 0 0 0 0 0 0 0 0 0 0 0
0 0 0 0 0 0 0 0 0 0 0 0 0 0 0 0 0 0 0 0 0 0 0 0 0 0 0 0 0 0 0 0 0 0 0 0 0 0
0 0 0 0 0 0 0 0 0 0 0 0 0 0 0 0 0 0 0 0 0 0 0 0 0 0 0 0 0 0 0 0 0 0 0 0 0 0
0 0 0 0 0 0 0 0 0 0 0 0 0 0 0 0 0 0 0 0 0 0 0 0 0 0 0 0 0 0 0 0 0 0 0 0 0 0
0 0 0 0 0 0 0 0 0 0 0 0 0 0 0 0 0 0 0 0 0 0 0 0 0 0 0 0 0 0 0 0 0 0 0 0 0 0
0 0 0 0 0 0 0 0 0 0 0 0 0 0 0 0 0 0 0 0 0 0 0 0 0 0 0 0 0 0 0 0 0 0 0 0 0 0
Wind_Speed_500mb
27 28 24 22 18 17 18 18 19 16 20 21 17 15 17 14 15 15 16 15 11 11 11 15 18 17 18 21 22 23 22 21 20 20 22 23 18 15
33 31 29 24 19 19 20 21 22 19 16 15 16 19 16 18 19 19 19 15 10 10 12 16 15 14 17 19 20 20 19 19 19 19 19 19 19 18
28 34 33 28 26 27 24 20 20 22 24 19 23 21 16 22 26 25 22 19 15 12 10 12 11 13 15 16 18 20 21 21 20 19 19 19 18 17
31 35 34 33 32 27 28 27 26 27 29 27 25 28 27 28 30 30 26 23 22 17 14 8 10 10 13 17 18 18 19 19 19 18 17 17 16 15
37 38 37 35 35 33 28 32 29 27 28 30 30 29 31 32 33 34 32 31 30 26 23 17 15 10 10 14 18 17 16 17 17 17 17 17 17 17
39 38 37 39 41 36 35 33 33 36 34 34 31 31 35 38 40 41 40 36 35 37 33 30 20 17 14 12 14 15 12 12 14 15 16 17 17 18
41 39 38 37 38 39 39 37 39 36 37 39 39 39 38 42 45 42 40 40 41 42 41 40 34 27 20 13 8 8 9 9 11 15 16 17 19 21
40 38 38 35 35 34 38 40 40 42 43 42 42 43 44 43 40 41 43 47 50 49 48 47 42 32 24 18 9 4 7 9 10 12 14 17 21 22
37 36 36 35 35 35 36 37 39 40 42 46 47 45 46 43 42 44 46 48 48 47 41 45 51 43 33 25 15 5 4 8 9 11 12 17 20 23
40 38 38 40 40 39 40 42 44 43 40 38 41 41 41 40 43 45 45 48 49 49 48 50 50 53 43 33 18 6 6 12 15 15 12 13 17 22
44 45 44 46 45 45 46 47 45 45 45 43 41 41 41 39 38 39 41 41 49 53 53 53 50 57 46 35 24 15 7 10 10 12 11 13 16 22
51 50 47 47 47 46 47 46 47 45 44 44 42 40 41 40 37 38 39 37 38 47 48 56 43 50 43 41 30 13 6 4 9 14 12 6 12 19
58 55 52 49 41 44 45 44 44 41 43 40 35 36 37 38 34 34 32 30 33 37 34 40 31 35 17 15 20 17 17 6 5 12 12 6 5 9
39 38 39 38 35 38 43 44 42 41 41 41 35 31 25 19 19 18 17 21 25 28 27 34 37 43 29 17 12 16 16 11 7 15 15 8 6 5
37 35 35 33 33 35 38 36 40 41 34 25 15 12 10 10 13 15 17 16 14 14 15 22 39 38 29 24 22 20 26 19 16 15 14 11 12 12
17 19 16 13 9 8 7 8 7 7 10 10 10 11 12 13 12 11 8 5 9 11 13 10 6 12 11 11 13 20 22 20 20 22 16 18 20 16
12 10 10 8 8 12 14 13 13 15 14 12 12 11 10 9 7 4 2 2 10 12 13 10 4 3 9 17 25 27 25 24 20 16 15 13 13 21
11 7 7 9 12 15 17 16 14 13 12 9 9 8 8 6 5 7 8 7 6 10 7 6 8 14 18 24 20 23 19 14 13 12 11 13 13 16
7 8 7 7 10 9 10 9 8 8 7 6 6 7 7 9 8 6 5 8 12 9 4 2 3 10 14 20 19 19 15 11 9 9 5 1 2 4
8 8 7 8 8 7 7 8 8 7 8 7 9 7 8 7 6 5 6 6 10 10 5 5 5 9 9 11 15 16 13 9 5 1 1 5 6 8
7 6 7 6 6 7 8 8 7 8 9 9 12 11 9 8 9 10 9 10 13 12 11 11 11 16 12 8 9 7 9 9 5 6 10 14 15 20
13 11 5 3 4 5 7 8 9 9 11 13 14 14 13 12 11 12 9 8 10 13 15 15 15 8 2 4 11 8 7 5 8 11 11 13 16 21
10 10 9 8 3 0 3 6 7 9 10 13 13 12 11 11 11 13 15 13 11 10 12 12 15 9 9 9 8 9 8 8 7 10 15 19 19 24
Wind_Direction_500mb
245 246 246 250 254 261 274 291 295 298 291 289 286 299 271 254 256 285 314 329 322 349 350 345 338 341 346 354 2 5 7 5 6 7 11 13 27 26
245 245 245 249 261 272 275 279 283 286 294 281 286 294 267 241 263 278 294 302 296 331 342 348 356 357 359 4 5 3 2 3 4 7 11 16 16 20
254 249 252 256 255 267 268 270 278 275 276 276 277 278 263 268 282 277 286 277 270 293 313 336 1 12 12 11 7 4 4 3 3 5 9 10 10 5
258 253 254 259 263 267 261 259 270 281 277 276 275 273 270 276 273 270 275 263 257 270 277 303 318 345 11 13 11 7 4 2 1 2 6 10 9 3
256 259 257 258 259 261 266 258 267 271 278 274 274 274 268 265 271 267 267 265 256 259 262 254 280 292 329 355 360 358 357 358 358 357 2 9 12 8
255 259 264 261 260 262 264 267 270 263 269 275 277 273 266 263 262 259 263 270 266 262 261 256 252 257 280 320 343 350 345 348 349 352 359 8 14 14
256 259 262 266 265 262 268 266 267 271 266 271 278 279 271 269 267 273 271 268 267 267 256 249 248 251 255 273 319 1 2 359 348 349 357 10 16 19
259 259 259 259 260 263 263 266 269 272 272 276 276 278 275 272 268 270 269 262 260 268 259 250 249 240 241 249 267 317 18 7 356 357 1 13 18 24
259 258 252 260 262 266 269 270 271 273 275 276 278 280 280 276 267 267 270 265 268 273 271 255 247 237 233 230 224 185 92 58 31 13 13 23 26 23
255 259 256 255 261 266 267 271 271 269 271 276 279 280 279 280 277 272 268 264 261 261 260 254 244 235 224 218 205 197 74 47 36 26 21 29 43 42
255 258 258 257 261 264 267 269 270 272 276 278 277 279 278 278 277 276 273 270 260 256 246 240 239 228 214 204 190 177 129 69 31 28 27 27 39 46
257 258 257 258 262 262 266 267 271 272 274 275 275 277 277 279 276 280 280 274 266 250 239 223 232 217 197 191 199 164 128 108 32 9 1 26 39 44
255 256 258 260 253 261 263 266 268 265 268 266 262 266 270 276 282 285 284 281 273 258 248 224 215 182 146 178 205 193 189 211 352 342 328 314 8 30
259 257 254 259 260 265 268 270 262 260 258 257 249 254 259 271 287 291 291 291 292 283 270 242 221 199 208 166 184 217 238 210 257 339 335 314 289 280
256 256 262 263 267 269 269 259 253 244 232 234 227 239 246 266 277 295 304 301 289 273 254 234 223 218 211 186 169 200 197 217 268 281 282 278 265 251
240 238 242 255 241 199 208 228 241 232 212 225 231 247 253 266 291 296 311 6 52 68 84 93 136 165 127 133 157 198 225 243 264 252 257 253 250 236
239 233 205 209 225 235 249 253 246 242 233 237 244 250 253 251 255 263 275 3 62 60 70 72 100 213 218 229 211 217 218 229 244 265 271 272 251 221
199 208 248 255 250 248 255 260 252 237 229 220 225 212 202 213 216 158 136 119 120 135 117 141 194 204 193 191 210 218 219 242 267 283 271 260 254 249
213 235 221 241 242 234 223 216 215 206 189 183 194 204 195 173 170 203 196 201 193 186 151 125 258 255 249 240 239 229 235 243 266 278 265 304 352 296
170 171 177 169 181 203 207 200 201 212 209 188 174 178 182 194 210 219 209 203 196 213 228 299 300 322 295 265 244 235 235 234 238 111 205 236 264 287
142 144 151 153 176 194 209 210 196 186 191 201 198 203 219 227 229 235 239 233 239 246 278 288 300 317 304 251 224 202 190 178 218 281 299 291 294 306
104 89 99 147 185 204 220 226 224 218 221 220 220 233 236 233 237 240 249 247 253 265 269 280 300 311 291 171 168 162 186 242 291 310 322 322 320 323
110 93 69 66 45 77 251 253 243 233 236 232 228 230 241 239 252 257 247 254 272 268 256 275 289 251 231 223 237 237 249 267 268 294 323 327 325 318
Wind_Speed_850mb
27 28 24 22 18 17 18 18 19 16 20 21 17 15 17 14 15 15 16 15 11 11 11 15 18 17 18 21 22 23 22 21 20 20 22 23 18 15
33 31 29 24 19 19 20 21 22 19 16 15 16 19 16 18 19 19 19 15 10 10 12 16 15 14 17 19 20 20 19 19 19 19 19 19 19 18
28 34 33 28 26 27 24 20 20 22 24 19 23 21 16 22 26 25 22 19 15 12 10 12 11 13 15 16 18 20 21 21 20 19 19 19 18 17
31 35 34 33 32 27 28 27 26 27 29 27 25 28 27 28 30 30 26 23 22 17 14 8 10 10 13 17 18 18 19 19 19 18 17 17 16 15
37 38 37 35 35 33 28 32 29 27 28 30 30 29 31 32 33 34 32 31 30 26 23 17 15 10 10 14 18 17 16 17 17 17 17 17 17 17
39 38 37 39 41 36 35 33 33 36 34 34 31 31 35 38 40 41 40 36 35 37 33 30 20 17 14 12 14 15 12 12 14 15 16 17 17 18
41 39 38 37 38 39 39 37 39 36 37 39 39 39 38 42 45 42 40 40 41 42 41 40 34 27 20 13 8 8 9 9 11 15 16 17 19 21
40 38 38 35 35 34 38 40 40 42 43 42 42 43 44 43 40 41 43 47 50 49 48 47 42 32 24 18 9 4 7 9 10 12 14 17 21 22
37 36 36 35 35 35 36 37 39 40 42 46 47 45 46 43 42 44 46 48 48 47 41 45 51 43 33 25 15 5 4 8 9 11 12 17 20 23
40 38 38 40 40 39 40 42 44 43 40 38 41 41 41 40 43 45 45 48 49 49 48 50 50 53 43 33 18 6 6 12 15 15 12 13 17 22
44 45 44 46 45 45 46 47 45 45 45 43 41 41 41 39 38 39 41 41 49 53 53 53 50 57 46 35 24 15 7 10 10 12 11 13 16 22
51 50 47 47 47 46 47 46 47 45 44 44 42 40 41 40 37 38 39 37 38 47 48 56 43 50 43 41 30 13 6 4 9 14 12 6 12 19
58 55 52 49 41 44 45 44 44 41 43 40 35 36 37 38 34 34 32 30 33 37 34 40 31 35 17 15 20 17 17 6 5 12 12 6 5 9
39 38 39 38 35 38 43 44 42 41 41 41 35 31 25 19 19 18 17 21 25 28 27 34 37 43 29 17 12 16 16 11 7 15 15 8 6 5
37 35 35 33 33 35 38 36 40 41 34 25 15 12 10 10 13 15 17 16 14 14 15 22 39 38 29 24 22 20 26 19 16 15 14 11 12 12
17 19 16 13 9 8 7 8 7 7 10 10 10 11 12 13 12 11 8 5 9 11 13 10 6 12 11 11 13 20 22 20 20 22 16 18 20 16
12 10 10 8 8 12 14 13 13 15 14 12 12 11 10 9 7 4 2 2 10 12 13 10 4 3 9 17 25 27 25 24 20 16 15 13 13 21
11 7 7 9 12 15 17 16 14 13 12 9 9 8 8 6 5 7 8 7 6 10 7 6 8 14 18 24 20 23 19 14 13 12 11 13 13 16
7 8 7 7 10 9 10 9 8 8 7 6 6 7 7 9 8 6 5 8 12 9 4 2 3 10 14 20 19 19 15 11 9 9 5 1 2 4
8 8 7 8 8 7 7 8 8 7 8 7 9 7 8 7 6 5 6 6 10 10 5 5 5 9 9 11 15 16 13 9 5 1 1 5 6 8
7 6 7 6 6 7 8 8 7 8 9 9 12 11 9 8 9 10 9 10 13 12 11 11 11 16 12 8 9 7 9 9 5 6 10 14 15 20
13 11 5 3 4 5 7 8 9 9 11 13 14 14 13 12 11 12 9 8 10 13 15 15 15 8 2 4 11 8 7 5 8 11 11 13 16 21
10 10 9 8 3 0 3 6 7 9 10 13 13 12 11 11 11 13 15 13 11 10 12 12 15 9 9 9 8 9 8 8 7 10 15 19 19 24
Wind_Direction_850mb
245 246 246 250 254 261 274 291 295 298 291 289 286 299 271 254 256 285 314 329 322 349 350 345 338 341 346 354 2 5 7 5 6 7 11 13 27 26
245 245 245 249 261 272 275 279 283 286 294 281 286 294 267 241 263 278 294 302 296 331 342 348 356 357 359 4 5 3 2 3 4 7 11 16 16 20
254 249 252 256 255 267 268 270 278 275 276 276 277 278 263 268 282 277 286 277 270 293 313 336 1 12 12 11 7 4 4 3 3 5 9 10 10 5
258 253 254 259 263 267 261 259 270 281 277 276 275 273 270 276 273 270 275 263 257 270 277 303 318 345 11 13 11 7 4 2 1 2 6 10 9 3
256 259 257 258 259 261 266 258 267 271 278 274 274 274 268 265 271 267 267 265 256 259 262 254 280 292 329 355 360 358 357 358 358 357 2 9 12 8
255 259 264 261 260 262 264 267 270 263 269 275 277 273 266 263 262 259 263 270 266 262 261 256 252 257 280 320 343 350 345 348 349 352 359 8 14 14
256 259 262 266 265 262 268 266 267 271 266 271 278 279 271 269 267 273 271 268 267 267 256 249 248 251 255 273 319 1 2 359 348 349 357 10 16 19
259 259 259 259 260 263 263 266 269 272 272 276 276 278 275 272 268 270 269 262 260 268 259 250 249 240 241 249 267 317 18 7 356 357 1 13 18 24
259 258 252 260 262 266 269 270 271 273 275 276 278 280 280 276 267 267 270 265 268 273 271 255 247 237 233 230 224 185 92 58 31 13 13 23 26 23
255 259 256 255 261 266 267 271 271 269 271 276 279 280 279 280 277 272 268 264 261 261 260 254 244 235 224 218 205 197 74 47 36 26 21 29 43 42
255 258 258 257 261 264 267 269 270 272 276 278 277 279 278 278 277 276 273 270 260 256 246 240 239 228 214 204 190 177 129 69 31 28 27 27 39 46
257 258 257 258 262 262 266 267 271 272 274 275 275 277 277 279 276 280 280 274 266 250 239 223 232 217 197 191 199 164 128 108 32 9 1 26 39 44
255 256 258 260 253 261 263 266 268 265 268 266 262 266 270 276 282 285 284 281 273 258 248 224 215 182 146 178 205 193 189 211 352 342 328 314 8 30
259 257 254 259 260 265 268 270 262 260 258 257 249 254 259 271 287 291 291 291 292 283 270 242 221 199 208 166 184 217 238 210 257 339 335 314 289 280
256 256 262 263 267 269 269 259 253 244 232 234 227 239 246 266 277 295 304 301 289 273 254 234 223 218 211 186 169 200 197 217 268 281 282 278 265 251
240 238 242 255 241 199 208 228 241 232 212 225 231 247 253 266 291 296 311 6 52 68 84 93 136 165 127 133 157 198 225 243 264 252 257 253 250 236
239 233 205 209 225 235 249 253 246 242 233 237 244 250 253 251 255 263 275 3 62 60 70 72 100 213 218 229 211 217 218 229 244 265 271 272 251 221
199 208 248 255 250 248 255 260 252 237 229 220 225 212 202 213 216 158 136 119 120 135 117 141 194 204 193 191 210 218 219 242 267 283 271 260 254 249
213 235 221 241 242 234 223 216 215 206 189 183 194 204 195 173 170 203 196 201 193 186 151 125 258 255 249 240 239 229 235 243 266 278 265 304 352 296
170 171 177 169 181 203 207 200 201 212 209 188 174 178 182 194 210 219 209 203 196 213 228 299 300 322 295 265 244 235 235 234 238 111 205 236 264 287
142 144 151 153 176 194 209 210 196 186 191 201 198 203 219 227 229 235 239 233 239 246 278 288 300 317 304 251 224 202 190 178 218 281 299 291 294 306
104 89 99 147 185 204 220 226 224 218 221 220 220 233 236 233 237 240 249 247 253 265 269 280 300 311 291 171 168 162 186 242 291 310 322 322 320 323
110 93 69 66 45 77 251 253 243 233 236 232 228 230 241 239 252 257 247 254 272 268 256 275 289 251 231 223 237 237 249 267 268 294 323 327 325 318